When you browse on this site, cookies collect data to enhance your experience and personalize the content and advertising you see.
Visit our Privacy Policy to learn more. By continuing to use the site, you agree to this use of cookies and data.
  • în România
  • Lista ţărilor
  • Pe 7 zile
  • Temperatura apei
  • Hartă satelitară
  • Meteo pe hartă
  • Widget-uri
  • user-avatar
    Intrare

    Meteo pe oră la Moquegua

    Astăzi, 25 Mai, Sâmbătă

    Timp Temperatura Precipitaţii Vânt Presiune Umiditate
    00:00 +19°C° 0 mm 1 m/s 643 mmHg 59%
    01:00 +19°C° 0 mm 1 m/s 643 mmHg 59%
    02:00 +18°C° 0 mm 1 m/s 643 mmHg 57%
    03:00 +18°C° 0 mm 1 m/s 642 mmHg 55%
    04:00 +18°C° 0 mm 1 m/s 642 mmHg 53%
    05:00 +18°C° 0 mm 1 m/s 642 mmHg 50%
    06:00 +19°C° 0 mm 1 m/s 643 mmHg 47%
    07:00 +19°C° 0 mm 1 m/s 643 mmHg 43%
    08:00 +21°C° 0 mm 1 m/s 644 mmHg 38%
    09:00 +23°C° 0 mm 2 m/s 644 mmHg 34%
    10:00 +25°C° 0 mm 2 m/s 645 mmHg 29%
    11:00 +25°C° 0 mm 3 m/s 644 mmHg 31%
    12:00 +26°C° 0 mm 3 m/s 644 mmHg 34%
    13:00 +26°C° 0 mm 3 m/s 644 mmHg 36%
    14:00 +25°C° 0 mm 3 m/s 643 mmHg 41%
    15:00 +24°C° 0 mm 3 m/s 643 mmHg 46%
    16:00 +23°C° 0 mm 2 m/s 643 mmHg 52%
    17:00 +21°C° 0 mm 2 m/s 643 mmHg 55%
    18:00 +22°C° 0 mm 1 m/s 644 mmHg 59%
    19:00 +21°C° 0 mm 1 m/s 644 mmHg 62%
    20:00 +21°C° 0 mm 1 m/s 644 mmHg 62%
    21:00 +20°C° 0 mm 1 m/s 644 mmHg 62%
    22:00 +20°C° 0 mm 1 m/s 645 mmHg 61%
    23:00 +20°C° 0 mm 1 m/s 644 mmHg 61%

    Mâine, 26 Mai, Duminică

    Timp Temperatura Precipitaţii Vânt Presiune Umiditate
    00:00 +19°C° 0 mm 1 m/s 644 mmHg 60%
    01:00 +19°C° 0 mm 1 m/s 644 mmHg 60%
    02:00 +19°C° 0 mm 1 m/s 644 mmHg 59%
    03:00 +18°C° 0 mm 1 m/s 643 mmHg 59%
    04:00 +18°C° 0 mm 1 m/s 643 mmHg 58%
    05:00 +19°C° 0 mm 1 m/s 643 mmHg 54%
    06:00 +19°C° 0 mm 1 m/s 644 mmHg 50%
    07:00 +20°C° 0 mm 1 m/s 644 mmHg 46%
    08:00 +22°C° 0 mm 1 m/s 645 mmHg 42%
    09:00 +23°C° 0 mm 2 m/s 645 mmHg 37%
    10:00 +25°C° 0 mm 2 m/s 646 mmHg 32%
    11:00 +25°C° 0 mm 3 m/s 645 mmHg 32%
    12:00 +26°C° 0 mm 3 m/s 645 mmHg 32%
    13:00 +27°C° 0 mm 3 m/s 644 mmHg 32%
    14:00 +26°C° 0 mm 3 m/s 644 mmHg 38%
    15:00 +25°C° 0 mm 3 m/s 644 mmHg 43%
    16:00 +24°C° 0 mm 3 m/s 643 mmHg 48%
    17:00 +23°C° 0 mm 2 m/s 643 mmHg 52%
    18:00 +22°C° 0 mm 1 m/s 644 mmHg 56%
    19:00 +19°C° 0 mm 0 m/s 644 mmHg 60%
    20:00 +21°C° 0 mm 1 m/s 644 mmHg 58%
    21:00 +21°C° 0 mm 1 m/s 644 mmHg 56%
    22:00 +21°C° 0 mm 1 m/s 645 mmHg 55%
    23:00 +20°C° 0 mm 1 m/s 644 mmHg 55%

    Poimâine, 27 Mai, Luni

    Timp Temperatura Precipitaţii Vânt Presiune Umiditate
    00:00 +19°C° 0 mm 1 m/s 644 mmHg 56%
    01:00 +19°C° 0 mm 1 m/s 644 mmHg 57%
    02:00 +18°C° 0 mm 1 m/s 643 mmHg 55%
    03:00 +18°C° 0 mm 1 m/s 643 mmHg 53%
    04:00 +18°C° 0 mm 1 m/s 643 mmHg 51%
    05:00 +18°C° 0 mm 1 m/s 643 mmHg 48%
    06:00 +19°C° 0 mm 1 m/s 643 mmHg 45%
    07:00 +19°C° 0 mm 1 m/s 644 mmHg 42%
    08:00 +21°C° 0 mm 1 m/s 644 mmHg 39%
    09:00 +23°C° 0 mm 2 m/s 645 mmHg 35%
    10:00 +24°C° 0 mm 2 m/s 645 mmHg 31%
    11:00 +25°C° 0 mm 3 m/s 645 mmHg 32%
    12:00 +25°C° 0 mm 3 m/s 645 mmHg 32%
    13:00 +26°C° 0 mm 4 m/s 644 mmHg 32%
    14:00 +25°C° 0 mm 3 m/s 644 mmHg 38%
    15:00 +24°C° 0 mm 3 m/s 643 mmHg 43%
    16:00 +23°C° 0 mm 2 m/s 643 mmHg 49%
    17:00 +22°C° 0 mm 1 m/s 643 mmHg 51%
    18:00 +22°C° 0 mm 1 m/s 643 mmHg 54%
    19:00 +19°C° 0 mm 0 m/s 644 mmHg 56%
    20:00 +19°C° 0 mm 0 m/s 644 mmHg 55%
    21:00 +18°C° 0 mm 0 m/s 644 mmHg 55%
    22:00 +18°C° 0 mm 0 m/s 644 mmHg 55%
    23:00 +17°C° 0 mm 0 m/s 644 mmHg 56%

    28 Mai, Marţi

    Timp Temperatura Precipitaţii Vânt Presiune Umiditate
    00:00 +17°C° 0 mm 0 m/s 644 mmHg 57%
    01:00 +16°C° 0 mm 0 m/s 643 mmHg 58%
    02:00 +16°C° 0 mm 0 m/s 643 mmHg 58%
    03:00 +16°C° 0 mm 0 m/s 643 mmHg 57%
    04:00 +15°C° 0 mm 0 m/s 642 mmHg 56%
    05:00 +16°C° 0 mm 0 m/s 643 mmHg 53%
    06:00 +16°C° 0 mm 0 m/s 643 mmHg 50%
    07:00 +19°C° 0 mm 1 m/s 644 mmHg 47%
    08:00 +21°C° 0 mm 1 m/s 644 mmHg 42%
    09:00 +21°C° 0 mm 2 m/s 645 mmHg 37%
    10:00 +24°C° 0 mm 2 m/s 645 mmHg 32%
    11:00 +25°C° 0 mm 3 m/s 645 mmHg 32%
    12:00 +25°C° 0 mm 3 m/s 644 mmHg 32%
    13:00 +26°C° 0 mm 3 m/s 644 mmHg 32%
    14:00 +25°C° 0 mm 3 m/s 643 mmHg 35%
    15:00 +24°C° 0 mm 3 m/s 643 mmHg 37%
    16:00 +24°C° 0 mm 3 m/s 643 mmHg 40%
    17:00 +23°C° 0 mm 2 m/s 643 mmHg 43%
    18:00 +22°C° 0 mm 1 m/s 643 mmHg 47%
    19:00 +19°C° 0 mm 0 m/s 644 mmHg 50%
    20:00 +19°C° 0 mm 0 m/s 644 mmHg 51%
    21:00 +18°C° 0 mm 0 m/s 644 mmHg 51%
    22:00 +18°C° 0 mm 0 m/s 644 mmHg 52%
    23:00 +18°C° 0 mm 0 m/s 644 mmHg 52%

    29 Mai, Miercuri

    Timp Temperatura Precipitaţii Vânt Presiune Umiditate
    00:00 +17°C° 0 mm 0 m/s 643 mmHg 52%
    01:00 +17°C° 0 mm 0 m/s 643 mmHg 52%
    02:00 +16°C° 0 mm 0 m/s 642 mmHg 51%
    03:00 +16°C° 0 mm 0 m/s 642 mmHg 51%
    04:00 +16°C° 0 mm 0 m/s 642 mmHg 50%
    05:00 +16°C° 0 mm 0 m/s 642 mmHg 48%
    06:00 +17°C° 0 mm 0 m/s 643 mmHg 45%
    07:00 +17°C° 0 mm 0 m/s 643 mmHg 42%
    08:00 +21°C° 0 mm 1 m/s 643 mmHg 38%
    09:00 +23°C° 0 mm 2 m/s 644 mmHg 34%
    10:00 +25°C° 0 mm 2 m/s 644 mmHg 30%
    11:00 +25°C° 0 mm 3 m/s 644 mmHg 29%
    12:00 +25°C° 0 mm 3 m/s 643 mmHg 29%
    13:00 +26°C° 0 mm 4 m/s 643 mmHg 28%
    14:00 +25°C° 0 mm 3 m/s 643 mmHg 31%
    15:00 +24°C° 0 mm 3 m/s 642 mmHg 33%
    16:00 +24°C° 0 mm 3 m/s 642 mmHg 36%
    17:00 +23°C° 0 mm 2 m/s 642 mmHg 39%
    18:00 +22°C° 0 mm 1 m/s 643 mmHg 41%
    19:00 +20°C° 0 mm 0 m/s 643 mmHg 44%
    20:00 +19°C° 0 mm 0 m/s 643 mmHg 47%
    21:00 +18°C° 0 mm 0 m/s 643 mmHg 49%
    22:00 +18°C° 0 mm 0 m/s 643 mmHg 52%
    23:00 +17°C° 0 mm 0 m/s 643 mmHg 53%

    30 Mai, Joi

    Timp Temperatura Precipitaţii Vânt Presiune Umiditate
    00:00 +17°C° 0 mm 0 m/s 643 mmHg 54%
    01:00 +16°C° 0 mm 0 m/s 642 mmHg 56%
    02:00 +16°C° 0 mm 0 m/s 642 mmHg 56%
    03:00 +16°C° 0 mm 0 m/s 642 mmHg 56%
    04:00 +15°C° 0 mm 0 m/s 642 mmHg 56%
    05:00 +16°C° 0 mm 0 m/s 642 mmHg 52%
    06:00 +17°C° 0 mm 0 m/s 643 mmHg 48%
    07:00 +18°C° 0 mm 0 m/s 643 mmHg 44%
    08:00 +21°C° 0 mm 1 m/s 644 mmHg 39%
    09:00 +23°C° 0 mm 2 m/s 645 mmHg 34%
    10:00 +25°C° 0 mm 2 m/s 645 mmHg 29%
    11:00 +25°C° 0 mm 2 m/s 645 mmHg 28%
    12:00 +26°C° 0 mm 3 m/s 644 mmHg 28%
    13:00 +26°C° 0 mm 3 m/s 644 mmHg 27%
    14:00 +26°C° 0 mm 3 m/s 643 mmHg 30%
    15:00 +25°C° 0 mm 3 m/s 643 mmHg 33%
    16:00 +25°C° 0 mm 3 m/s 643 mmHg 36%
    17:00 +24°C° 0 mm 2 m/s 643 mmHg 40%
    18:00 +23°C° 0 mm 1 m/s 643 mmHg 44%
    19:00 +22°C° 0 mm 1 m/s 644 mmHg 48%
    20:00 +21°C° 0 mm 1 m/s 644 mmHg 51%
    21:00 +20°C° 0 mm 1 m/s 644 mmHg 55%
    22:00 +19°C° 0 mm 1 m/s 644 mmHg 58%
    23:00 +19°C° 0 mm 1 m/s 644 mmHg 58%
    Arată mai mult